Regional Weather Roundup
Issued by NWS

Home | Current Version | Previous Version | Graphics & Text | Print | Product List | Glossary Off
Versions: 1 2 3 4 5 6 7 8 9 10 11 12 13 14 15 16 17 18 19 20 21 22 23 24 25 26 27 28 29 30 31 32 33 34 35 36 37 38 39 40 41 42 43 44 45 46 47 48 49 50

890
ASUS43 KTOP 212059
RWRKS

WEATHER ROUNDUP FOR KANSAS
NATIONAL WEATHER SERVICE GOODLAND KS
400 PM CDT SAT OCT 21 2017

NOTE:  "FAIR" INDICATES FEW OR NO CLOUDS BELOW 12,000 FEET WITH NO
SIGNIFICANT WEATHER AND/OR OBSTRUCTIONS TO VISIBILITY.

KSZ001>006-013>018-027>032-041>047-212200-
NORTHWEST KANSAS

CITY           SKY/WX    TMP DP  RH WIND       PRES   REMARKS
GOODLAND       SUNNY     61  18  18 NW28G39   29.95R
HAYS           CLOUDY    63  39  41 NW21G26   29.90R
HILL CITY      CLOUDY    62  33  33 N23G32    29.94R
RUSSELL        SUNNY     67  41  38 NW22G32   29.86R
$$

KSZ061>065-074>080-084>089-212200-
SOUTHWEST KANSAS

CITY           SKY/WX    TMP DP  RH WIND       PRES   REMARKS
DODGE CITY     CLOUDY    61  34  36 N21G32    29.92R
ELKHART          N/A     62  26  25 N16         N/A
GARDEN CITY    CLOUDY    60  29  30 N22G32    29.95R
GREAT BEND     SUNNY     67  42  40 N18G25    29.86R
LIBERAL        CLOUDY    60  33  36 N23       29.95R
$$

KSZ066>073-081>083-090>101-212200-
SOUTHEAST KANSAS

CITY           SKY/WX    TMP DP  RH WIND       PRES   REMARKS
CHANUTE        CLOUDY    76  65  68 S20G28    29.82R
COFFEYVILLE    PTSUNNY   79  65  62 S16G30    29.82R
HUTCHINSON     MOSUNNY   74  43  32 NW13      29.80R
MEDICINE LODGE   N/A     71  39  31 N20G29    29.80R
NEWTON         CLOUDY    68  45  43 NW17G24   29.79S
PARSONS        PTSUNNY   78  64  61 S17G31    29.83S
WICHITA INTL   TSTM      65  55  70 NW21      29.77R
WICHITA JABRA  TSTM      66  59  78 NW13      29.77R
WICHITA MCCONL TSTM      70  65  84 NW20G25   29.79R VSB 3/4
WINFIELD       CLOUDY    75  67  76 S12       29.79S
$$

KSZ007>012-019>026-033>040-048>060-102>105-212200-
NORTHEAST KANSAS

CITY           SKY/WX    TMP DP  RH WIND       PRES   REMARKS
CONCORDIA      SUNNY     66  42  41 N22G30    29.83R
EMPORIA        CLOUDY    73  63  70 S21G28    29.77S
LAWRENCE       CLOUDY    76  65  68 S14G23    29.78S
MANHATTAN      CLOUDY    71  53  52 W5        29.76R
OLATHE IND     CLOUDY    75  64  68 S18G24    29.81F
OLATHE EXE     CLOUDY    74  64  71 S13G20    29.81F
SALINA         PTSUNNY   71  46  40 N21G30    29.81R
TOPEKA BILLARD CLOUDY    76  66  71 S16G24    29.76S
TOPEKA FORBES  CLOUDY    76  65  68 S18G26    29.77R
$$




USA.gov is the U.S. government's official web portal to all federal, state and local government web resources and services.